Weather History for KHTS - April, 2013

Change the Weather History Date:

Saturday, April 27, 2013

  Actual Average Record
Temperature  
Mean Temperature 56 °F 60 °F  
Max Temperature 67 °F 71 °F 92 °F (1915)
Min Temperature 45 °F 48 °F 31 °F (1926)
Degree Days  
Heating Degree Days 9 7  
Month to date heating degree days 246 273  
Since 1 July heating degree days 4422 4370  
Cooling Degree Days 0 1  
Month to date cooling degree days 43 26  
Year to date cooling degree days 43 31  
Growing Degree Days 6 (Base 50)    
Moisture  
Dew Point 42 °F    
Average Humidity 60    
Maximum Humidity 86    
Minimum Humidity 34    
Precipitation  
Precipitation 0.01 in 0.13 in 1.58 in (1912)
Month to date precipitation 2.19 3.08  
Year to date precipitation 11.76 13.02  
Snow  
Snow 0.00 in - - ()
Month to date snowfall 0.0  
Since 1 September snowfall 12.4  
Snow Depth 0.00 in    
Sea Level Pressure  
Sea Level Pressure 30.26 in    
Wind  
Wind Speed 2 mph (SSE)    
Max Wind Speed 12 mph    
Max Gust Speed 17 mph    
Visibility 10 miles    
Events Rain    
T = Trace of Precipitation, MM = Missing Value Source: NWS Daily Summary

Daily Weather History Graph

Daily Weather History Graph

Search for Another Location

Airport or City:

Trip Planner

Search our weather history database for the weather conditions in past years. The results will help you decide how hot, cold, wet, or windy it might be!

Date:

Astronomy

Apr. 27, 2013 Rise Set
Actual Time 6:37 AM EDT 8:18 PM EDT
Civil Twilight 6:09 AM EDT 8:46 PM EDT
Nautical Twilight 5:35 AM EDT 9:20 PM EDT
Astronomical Twilight 4:59 AM EDT 9:57 PM EDT
Moon 10:44 PM EDT (4/27) 7:56 AM EDT (4/27)
Length of Visible Light 14h 36m
Length of Day
13h 40m
Waning Gibbous, 95% of the Moon is Illuminated
Apr 27
Waning Gibbous
May 2
Last Quarter
May 9
New
May 18
First Quarter
May 25
Full

Hourly Weather History & Observations

Time (EDT) Temp. Dew Point Humidity Pressure Visibility Wind Dir Wind Speed Gust Speed Precip Events Conditions
12:51 AM 51.1 °F 37.9 °F 61% 30.35 in 10.0 mi Calm Calm - N/A   Clear
1:51 AM 52.0 °F 36.0 °F 54% 30.35 in 10.0 mi Calm Calm - N/A   Partly Cloudy
2:51 AM 50.0 °F 37.9 °F 63% 30.33 in 10.0 mi Calm Calm - N/A   Clear
3:51 AM 48.9 °F 37.0 °F 64% 30.32 in 10.0 mi Calm Calm - N/A   Clear
4:51 AM 46.0 °F 39.9 °F 79% 30.32 in 10.0 mi Calm Calm - N/A   Clear
5:51 AM 46.9 °F 39.9 °F 77% 30.30 in 10.0 mi Calm Calm - N/A   Clear
6:51 AM 46.0 °F 39.9 °F 79% 30.31 in 10.0 mi Calm Calm - N/A   Clear
7:51 AM 48.0 °F 42.1 °F 80% 30.32 in 10.0 mi Calm Calm - N/A   Mostly Cloudy
8:51 AM 53.1 °F 42.1 °F 66% 30.31 in 10.0 mi Calm Calm - N/A   Overcast
9:51 AM 57.0 °F 39.0 °F 51% 30.30 in 10.0 mi Calm Calm - N/A   Overcast
10:51 AM 61.0 °F 41.0 °F 48% 30.29 in 10.0 mi Calm Calm - N/A   Overcast
11:51 AM 64.9 °F 41.0 °F 42% 30.29 in 10.0 mi Variable 3.5 mph - N/A   Mostly Cloudy
12:51 PM 66.9 °F 37.9 °F 34% 30.28 in 10.0 mi WSW 4.6 mph - N/A   Partly Cloudy
1:51 PM 64.9 °F 37.9 °F 37% 30.27 in 10.0 mi SSW 5.8 mph - N/A   Overcast
2:51 PM 64.9 °F 39.9 °F 40% 30.25 in 10.0 mi Calm Calm - N/A   Overcast
3:51 PM 64.9 °F 42.1 °F 43% 30.23 in 10.0 mi Calm Calm - N/A   Scattered Clouds
4:51 PM 64.9 °F 43.0 °F 45% 30.20 in 10.0 mi SSW 9.2 mph - N/A   Overcast
5:51 PM 64.0 °F 44.1 °F 48% 30.20 in 10.0 mi South 6.9 mph - N/A   Overcast
6:51 PM 62.1 °F 46.0 °F 56% 30.19 in 10.0 mi SSE 8.1 mph - N/A   Overcast
7:51 PM 57.9 °F 48.9 °F 72% 30.19 in 9.0 mi Calm Calm - 0.00 in Rain Light Rain
8:51 PM 57.0 °F 51.1 °F 81% 30.17 in 10.0 mi ESE 3.5 mph - 0.01 in   Overcast
9:51 PM 55.9 °F 51.1 °F 84% 30.15 in 10.0 mi East 3.5 mph - N/A   Overcast
10:51 PM 55.9 °F 50.0 °F 80% 30.13 in 10.0 mi ESE 4.6 mph - N/A   Mostly Cloudy
11:51 PM 57.9 °F 50.0 °F 75% 30.12 in 10.0 mi SE 4.6 mph - N/A   Overcast